Cosmos 292 Rocket - Orbit

View from above orbital plane
View from above orbital plane
View from above satellite
View from above satellite

Ground track
Ground track

The orbit data is extracted from the following two-line orbital elements,

1 04071U 69070B   13141.41895313  .00000573  00000-0  12201-3 0  4740
2 04071 074.0506 087.2902 0012959 086.0366 062.8887 14.61258403320423
Epoch (UTC): 21 May 2013 10:03:17
Eccentricity: 0.0012959
inclination: 74.0506°
perigee height: 680 km
apogee height: 698 km
right ascension of ascending node: 87.2902°
argument of perigee: 86.0366°
revolutions per day: 14.61258403
mean anomaly at epoch: 62.8887°
orbit number at epoch: 32042

The dashed part of the orbit path shows where the satellite is in the earth's shadow,  

Developed and maintained by Chris Peat, Heavens-Above GmbH. Please read the updated FAQ before sending e-mail. Imprint. DLR